| time (UTC) | temp F | wind direction | speed knots | gust knots | rain 1hr in | rain 24hr in | rain mn in | humidity % | barometer mb |
| 20260506034009 | 60 | 156 | 0.0 | 0.0 | 0.00 | 0.00 | 0.00 | 79 | 1008.0 |
| 20260506033507 | 60 | 171 | 0.0 | 0.0 | 0.00 | 0.00 | 0.00 | 82 | 1008.2 |
| 20260506033004 | 60 | 172 | 0.0 | 0.0 | 0.00 | 0.00 | 0.00 | 82 | 1008.1 |
| 20260506032501 | 60 | 172 | 0.0 | 0.0 | 0.00 | 0.00 | 0.00 | 82 | 1008.5 |
| 20260506031957 | 60 | 172 | 0.0 | 0.0 | 0.00 | 0.00 | 0.00 | 82 | 1008.5 |
| 20260506031455 | 60 | 172 | 0.0 | 0.0 | 0.00 | 0.00 | 0.00 | 82 | 1008.1 |
| 20260506030952 | 60 | 172 | 0.0 | 0.0 | 0.00 | 0.00 | 0.00 | 82 | 1008.3 |
| 20260506030450 | 60 | 173 | 0.0 | 0.0 | 0.00 | 0.00 | 0.00 | 81 | 1008.4 |
| 20260506025946 | 60 | 172 | 0.0 | 0.0 | 0.00 | 0.00 | 0.00 | 81 | 1008.2 |
| 20260506025443 | 60 | 172 | 0.0 | 0.0 | 0.00 | 0.00 | 0.00 | 80 | 1008.3 |
| 20260506024940 | 60 | 173 | 0.0 | 0.0 | 0.00 | 0.00 | 0.00 | 80 | 1008.4 |
| 20260506024437 | 60 | 174 | 0.0 | 0.0 | 0.00 | 0.00 | 0.00 | 80 | 1008.4 |
| 20260506023932 | 61 | 173 | 0.0 | 0.0 | 0.00 | 0.00 | 0.00 | 79 | 1008.5 |
| 20260506023430 | 61 | 171 | 0.0 | 0.0 | 0.00 | 0.00 | 0.00 | 78 | 1008.5 |
| 20260506022926 | 61 | 171 | 0.0 | 0.0 | 0.00 | 0.00 | 0.00 | 77 | 1008.6 |
| 20260506022424 | 62 | 171 | 0.0 | 0.0 | 0.00 | 0.00 | 0.00 | 76 | 1008.6 |
| 20260506021922 | 62 | 171 | 0.0 | 0.0 | 0.00 | 0.00 | 0.00 | 76 | 1008.6 |
| 20260506021419 | 63 | 171 | 0.0 | 0.0 | 0.00 | 0.00 | 0.00 | 75 | 1008.5 |
| 20260506020916 | 63 | 171 | 0.0 | 0.0 | 0.00 | 0.00 | 0.00 | 74 | 1008.3 |
| 20260506020414 | 64 | 171 | 0.0 | 0.0 | 0.00 | 0.00 | 0.00 | 73 | 1008.3 |
| 20260506015910 | 64 | 171 | 0.0 | 0.0 | 0.00 | 0.00 | 0.00 | 73 | 1008.4 |
| 20260506015408 | 64 | 171 | 0.0 | 0.0 | 0.00 | 0.00 | 0.00 | 72 | 1008.4 |
| 20260506014905 | 64 | 171 | 0.0 | 0.0 | 0.00 | 0.00 | 0.00 | 72 | 1008.5 |
| 20260506014402 | 64 | 171 | 0.0 | 0.0 | 0.00 | 0.00 | 0.00 | 72 | 1008.5 |
| 20260506013858 | 65 | 171 | 0.0 | 0.0 | 0.00 | 0.00 | 0.00 | 71 | 1008.5 |
| 20260506013356 | 66 | 171 | 0.0 | 0.0 | 0.00 | 0.00 | 0.00 | 69 | 1008.1 |
| 20260506012852 | 65 | 171 | 0.0 | 0.0 | 0.00 | 0.00 | 0.00 | 69 | 1008.3 |
| 20260506012349 | 65 | 171 | 0.0 | 0.0 | 0.00 | 0.00 | 0.00 | 68 | 1008.0 |
| 20260506011846 | 66 | 171 | 0.0 | 0.0 | 0.00 | 0.00 | 0.00 | 69 | 1008.2 |
| 20260506011343 | 66 | 172 | 0.0 | 0.0 | 0.00 | 0.00 | 0.00 | 68 | 1008.0 |
| 20260506010840 | 67 | 172 | 0.0 | 0.0 | 0.00 | 0.00 | 0.00 | 67 | 1007.9 |
| 20260506010338 | 66 | 172 | 0.0 | 0.0 | 0.00 | 0.00 | 0.00 | 67 | 1007.8 |
| 20260506005835 | 66 | 181 | 0.0 | 0.0 | 0.00 | 0.00 | 0.00 | 67 | 1008.0 |
| 20260506005332 | 66 | 181 | 0.0 | 0.0 | 0.00 | 0.00 | 0.00 | 67 | 1008.0 |
| 20260506004827 | 66 | 181 | 0.0 | 0.0 | 0.00 | 0.00 | 0.00 | 67 | 1008.0 |
| 20260506004326 | 67 | 181 | 0.0 | 0.0 | 0.00 | 0.00 | 0.00 | 67 | 1008.0 |
| 20260506003821 | 67 | 181 | 0.0 | 0.0 | 0.00 | 0.00 | 0.00 | 65 | 1007.7 |
| 20260506003318 | 68 | 180 | 0.0 | 0.0 | 0.00 | 0.00 | 0.00 | 63 | 1007.9 |
| 20260506002814 | 68 | 180 | 0.0 | 0.0 | 0.00 | 0.00 | 0.00 | 62 | 1007.7 |
| 20260506002311 | 68 | 181 | 0.0 | 0.0 | 0.00 | 0.00 | 0.00 | 64 | 1007.8 |
| 20260506001806 | 68 | 181 | 0.0 | 0.0 | 0.00 | 0.00 | 0.00 | 64 | 1007.5 |
| 20260506001304 | 68 | 181 | 0.0 | 0.0 | 0.00 | 0.00 | 0.00 | 64 | 1007.6 |
| 20260506000801 | 69 | 181 | 0.0 | 0.0 | 0.00 | 0.00 | 0.00 | 63 | 1007.5 |
| 20260506000258 | 69 | 181 | 0.0 | 0.0 | 0.00 | 0.00 | 0.00 | 63 | 1007.3 |
| 20260505235755 | 70 | 185 | 0.0 | 0.0 | 0.00 | 0.00 | 0.00 | 62 | 1007.5 |
| 20260505235253 | 70 | 185 | 0.0 | 0.0 | 0.00 | 0.00 | 0.00 | 61 | 1007.3 |
| 20260505234749 | 70 | 181 | 0.0 | 0.0 | 0.00 | 0.00 | 0.00 | 60 | 1007.4 |
| 20260505234247 | 71 | 181 | 0.0 | 0.0 | 0.00 | 0.00 | 0.00 | 59 | 1007.4 |
| 20260505233743 | 71 | 185 | 0.0 | 0.0 | 0.00 | 0.00 | 0.00 | 58 | 1007.1 |
| 20260505233242 | 71 | 183 | 0.0 | 0.0 | 0.00 | 0.00 | 0.00 | 58 | 1007.2 |
| 20260505232739 | 71 | 184 | 0.0 | 0.0 | 0.00 | 0.00 | 0.00 | 57 | 1007.3 |
| 20260505232236 | 72 | 180 | 0.0 | 0.0 | 0.00 | 0.00 | 0.00 | 56 | 1007.3 |
| 20260505231732 | 72 | 181 | 0.0 | 0.0 | 0.00 | 0.00 | 0.00 | 55 | 1007.4 |
| 20260505231231 | 72 | 185 | 0.0 | 0.0 | 0.00 | 0.00 | 0.00 | 55 | 1007.4 |
| 20260505230729 | 72 | 199 | 0.0 | 0.0 | 0.00 | 0.00 | 0.00 | 54 | 1007.2 |
| 20260505230226 | 73 | 209 | 0.0 | 0.0 | 0.00 | 0.00 | 0.00 | 54 | 1007.3 |
| 20260505225722 | 73 | 184 | 0.0 | 0.9 | 0.00 | 0.00 | 0.00 | 54 | 1007.0 |
| 20260505225219 | 73 | 171 | 1.7 | 1.7 | 0.00 | 0.00 | 0.00 | 53 | 1007.2 |
| 20260505224714 | 74 | 177 | 0.0 | 0.0 | 0.00 | 0.00 | 0.00 | 51 | 1007.3 |
| 20260505224212 | 74 | 206 | 0.9 | 0.9 | 0.00 | 0.00 | 0.00 | 50 | 1007.6 |
| 20260505223710 | 75 | 205 | 0.0 | 0.0 | 0.00 | 0.00 | 0.00 | 48 | 1007.4 |
| 20260505223206 | 75 | 167 | 0.0 | 0.0 | 0.00 | 0.00 | 0.00 | 47 | 1007.5 |
| 20260505222702 | 75 | 167 | 0.0 | 0.0 | 0.00 | 0.00 | 0.00 | 49 | 1007.5 |
| 20260505222158 | 75 | 200 | 0.0 | 0.0 | 0.00 | 0.00 | 0.00 | 47 | 1007.2 |
| 20260505221655 | 75 | 171 | 0.0 | 0.0 | 0.00 | 0.00 | 0.00 | 47 | 1007.3 |
| 20260505221152 | 75 | 173 | 0.0 | 0.0 | 0.00 | 0.00 | 0.00 | 46 | 1007.1 |
| 20260505220649 | 75 | 170 | 0.0 | 0.0 | 0.00 | 0.00 | 0.00 | 46 | 1007.6 |
| 20260505220147 | 75 | 176 | 0.0 | 0.0 | 0.00 | 0.00 | 0.00 | 45 | 1007.3 |
| 20260505215644 | 76 | 269 | 1.7 | 3.5 | 0.00 | 0.00 | 0.00 | 45 | 1007.3 |
| 20260505215142 | 76 | 192 | 0.0 | 0.0 | 0.00 | 0.00 | 0.00 | 44 | 1007.3 |
| 20260505214640 | 76 | 245 | 0.0 | 0.0 | 0.00 | 0.00 | 0.00 | 44 | 1007.2 |
| 20260505214137 | 76 | 181 | 0.0 | 0.9 | 0.00 | 0.00 | 0.00 | 46 | 1007.1 |
| 20260505213634 | 77 | 187 | 0.0 | 0.0 | 0.00 | 0.00 | 0.00 | 45 | 1007.0 |
| 20260505213131 | 76 | 178 | 0.0 | 0.0 | 0.00 | 0.00 | 0.00 | 47 | 1007.0 |
| 20260505212627 | 76 | 269 | 1.7 | 2.6 | 0.00 | 0.00 | 0.00 | 46 | 1006.6 |
| 20260505212125 | 76 | 196 | 0.0 | 0.0 | 0.00 | 0.00 | 0.00 | 46 | 1006.4 |
| 20260505211621 | 76 | 200 | 0.0 | 0.0 | 0.00 | 0.00 | 0.00 | 46 | 1006.4 |
| 20260505211119 | 76 | 169 | 0.0 | 0.0 | 0.00 | 0.00 | 0.00 | 46 | 1006.4 |
| 20260505210615 | 75 | 197 | 0.0 | 0.0 | 0.00 | 0.00 | 0.00 | 47 | 1006.6 |
| 20260505210112 | 75 | 171 | 0.0 | 0.0 | 0.00 | 0.00 | 0.00 | 47 | 1006.6 |
| 20260505205609 | 75 | 210 | 0.0 | 0.0 | 0.00 | 0.00 | 0.00 | 46 | 1006.6 |
| 20260505205107 | 76 | 193 | 2.6 | 2.6 | 0.00 | 0.00 | 0.00 | 44 | 1006.5 |
| 20260505204604 | 76 | 193 | 0.9 | 0.9 | 0.00 | 0.00 | 0.00 | 45 | 1006.6 |
| 20260505204102 | 76 | 226 | 0.0 | 0.9 | 0.00 | 0.00 | 0.00 | 44 | 1006.6 |
| 20260505203558 | 77 | 194 | 0.0 | 0.9 | 0.00 | 0.00 | 0.00 | 42 | 1006.5 |
| 20260505203055 | 77 | 165 | 0.0 | 0.0 | 0.00 | 0.00 | 0.00 | 42 | 1006.5 |
| 20260505202551 | 77 | 192 | 0.0 | 0.9 | 0.00 | 0.00 | 0.00 | 41 | 1007.0 |
| 20260505202047 | 77 | 231 | 2.6 | 3.5 | 0.00 | 0.00 | 0.00 | 40 | 1006.5 |
| 20260505201544 | 78 | 318 | 4.3 | 7.0 | 0.00 | 0.00 | 0.00 | 38 | 1006.4 |
| 20260505201042 | 78 | 177 | 0.0 | 0.9 | 0.00 | 0.00 | 0.00 | 38 | 1006.3 |
| 20260505200539 | 78 | 173 | 0.0 | 0.0 | 0.00 | 0.00 | 0.00 | 38 | 1006.3 |
| 20260505200036 | 78 | 155 | 2.6 | 3.5 | 0.00 | 0.00 | 0.00 | 38 | 1006.2 |
| 20260505195532 | 79 | 174 | 0.0 | 0.0 | 0.00 | 0.00 | 0.00 | 37 | 1006.3 |
| 20260505195030 | 79 | 165 | 2.6 | 3.5 | 0.00 | 0.00 | 0.00 | 36 | 1006.2 |
| 20260505194527 | 79 | 132 | 3.5 | 5.2 | 0.00 | 0.00 | 0.00 | 36 | 1006.3 |
| 20260505194022 | 79 | 189 | 1.7 | 3.5 | 0.00 | 0.00 | 0.00 | 37 | 1006.3 |
| 20260505193520 | 79 | 171 | 0.0 | 0.0 | 0.00 | 0.00 | 0.00 | 37 | 1006.3 |
| 20260505193017 | 79 | 197 | 3.5 | 5.2 | 0.00 | 0.00 | 0.00 | 35 | 1006.2 |
| 20260505192516 | 79 | 253 | 0.9 | 2.6 | 0.00 | 0.00 | 0.00 | 36 | 1006.2 |
| 20260505192013 | 79 | 99 | 0.0 | 0.0 | 0.00 | 0.00 | 0.00 | 35 | 1006.3 |
| 20260505191511 | 80 | 256 | 0.0 | 0.9 | 0.00 | 0.00 | 0.00 | 36 | 1006.1 |
| 20260505191009 | 81 | 210 | 2.6 | 5.2 | 0.00 | 0.00 | 0.00 | 34 | 1006.2 |
| 20260505190503 | 81 | 227 | 0.0 | 0.9 | 0.00 | 0.00 | 0.00 | 37 | 1006.1 |
| 20260505185958 | 81 | 250 | 3.5 | 5.2 | 0.00 | 0.00 | 0.00 | 35 | 1006.0 |
| 20260505185456 | 81 | 158 | 0.0 | 0.0 | 0.00 | 0.00 | 0.00 | 38 | 1006.2 |
| 20260505184952 | 80 | 215 | 1.7 | 1.7 | 0.00 | 0.00 | 0.00 | 38 | 1006.1 |
| 20260505184449 | 79 | 169 | 0.0 | 0.0 | 0.00 | 0.00 | 0.00 | 39 | 1006.0 |
| 20260505183945 | 79 | 222 | 0.0 | 0.0 | 0.00 | 0.00 | 0.00 | 40 | 1006.3 |
| 20260505183443 | 79 | 254 | 0.0 | 0.9 | 0.00 | 0.00 | 0.00 | 40 | 1006.4 |
| 20260505182939 | 79 | 163 | 0.0 | 0.0 | 0.00 | 0.00 | 0.00 | 38 | 1006.1 |
| 20260505182436 | 79 | 269 | 3.5 | 5.2 | 0.00 | 0.00 | 0.00 | 38 | 1006.3 |
| 20260505181932 | 80 | 306 | 0.0 | 0.0 | 0.00 | 0.00 | 0.00 | 39 | 1006.4 |
| 20260505181430 | 80 | 172 | 0.0 | 0.0 | 0.00 | 0.00 | 0.00 | 38 | 1006.6 |
| 20260505180927 | 80 | 193 | 3.5 | 5.2 | 0.00 | 0.00 | 0.00 | 40 | 1006.4 |
| 20260505180423 | 80 | 292 | 0.0 | 0.0 | 0.00 | 0.00 | 0.00 | 38 | 1006.8 |
| 20260505175920 | 80 | 311 | 7.8 | 9.6 | 0.00 | 0.00 | 0.00 | 39 | 1006.9 |
| 20260505175416 | 80 | 336 | 5.2 | 7.0 | 0.00 | 0.00 | 0.00 | 38 | 1006.6 |
| 20260505174912 | 80 | 240 | 3.5 | 5.2 | 0.00 | 0.00 | 0.00 | 38 | 1006.8 |
| 20260505174410 | 80 | 247 | 5.2 | 6.1 | 0.00 | 0.00 | 0.00 | 41 | 1006.9 |
| 20260505173906 | 80 | 317 | 2.6 | 5.2 | 0.00 | 0.00 | 0.00 | 38 | 1006.8 |
| 20260505173402 | 80 | 307 | 2.6 | 3.5 | 0.00 | 0.00 | 0.00 | 39 | 1006.8 |
| 20260505172900 | 79 | 136 | 1.7 | 1.7 | 0.00 | 0.00 | 0.00 | 38 | 1007.1 |
| 20260505172357 | 78 | 195 | 3.5 | 3.5 | 0.00 | 0.00 | 0.00 | 41 | 1007.3 |
| 20260505171857 | 79 | 312 | 7.0 | 7.0 | 0.00 | 0.00 | 0.00 | 39 | 1007.2 |
| 20260505171354 | 78 | 161 | 0.0 | 0.0 | 0.00 | 0.00 | 0.00 | 43 | 1007.4 |
| 20260505170850 | 78 | 175 | 0.9 | 0.9 | 0.00 | 0.00 | 0.00 | 44 | 1007.1 |
| 20260505170348 | 78 | 243 | 4.3 | 5.2 | 0.00 | 0.00 | 0.00 | 42 | 1007.3 |
| 20260505165843 | 78 | 298 | 1.7 | 3.5 | 0.00 | 0.00 | 0.00 | 42 | 1007.2 |
| 20260505165339 | 77 | 200 | 0.0 | 0.0 | 0.00 | 0.00 | 0.00 | 43 | 1007.2 |
| 20260505164835 | 77 | 203 | 0.0 | 0.9 | 0.00 | 0.00 | 0.00 | 44 | 1007.5 |
| 20260505164331 | 77 | 186 | 1.7 | 5.2 | 0.00 | 0.00 | 0.00 | 43 | 1007.5 |
| 20260505163830 | 78 | 186 | 0.0 | 0.9 | 0.00 | 0.00 | 0.00 | 43 | 1007.2 |
| 20260505163328 | 78 | 216 | 0.0 | 0.9 | 0.00 | 0.00 | 0.00 | 43 | 1007.3 |
| 20260505162826 | 78 | 232 | 2.6 | 3.5 | 0.00 | 0.00 | 0.00 | 43 | 1007.5 |
| 20260505162322 | 78 | 154 | 0.0 | 0.0 | 0.00 | 0.00 | 0.00 | 47 | 1007.4 |
| 20260505161819 | 77 | 187 | 0.0 | 0.0 | 0.00 | 0.00 | 0.00 | 45 | 1007.8 |
| 20260505161316 | 77 | 237 | 2.6 | 3.5 | 0.00 | 0.00 | 0.00 | 46 | 1007.9 |
| 20260505160814 | 76 | 186 | 0.0 | 0.0 | 0.00 | 0.00 | 0.00 | 47 | 1008.0 |
| 20260505160312 | 78 | 236 | 3.5 | 3.5 | 0.00 | 0.00 | 0.00 | 45 | 1007.8 |
| 20260505153250 | 77 | 248 | 1.7 | 2.6 | 0.00 | 0.00 | 0.00 | 47 | 1008.1 |
| 20260505152747 | 77 | 166 | 0.0 | 0.0 | 0.00 | 0.00 | 0.00 | 47 | 1007.9 |
| 20260505152243 | 76 | 176 | 0.0 | 0.0 | 0.00 | 0.00 | 0.00 | 48 | 1008.0 |
| 20260505151738 | 77 | 158 | 2.6 | 5.2 | 0.00 | 0.00 | 0.00 | 47 | 1007.9 |
| 20260505151236 | 76 | 167 | 0.9 | 1.7 | 0.00 | 0.00 | 0.00 | 48 | 1008.1 |
| 20260505150732 | 77 | 228 | 3.5 | 7.0 | 0.00 | 0.00 | 0.00 | 46 | 1007.9 |
| 20260505150229 | 77 | 200 | 1.7 | 1.7 | 0.00 | 0.00 | 0.00 | 47 | 1007.9 |
| 20260505140154 | 69 | 178 | 0.0 | 0.0 | 0.00 | 0.00 | 0.00 | 66 | 1008.1 |
| 20260505130118 | 59 | 180 | 0.0 | 0.0 | 0.00 | 0.00 | 0.00 | 83 | 1008.7 |
| 20260505124607 | 57 | 179 | 0.0 | 0.0 | 0.00 | 0.00 | 0.00 | 86 | 1008.9 |
| 20260505124104 | 57 | 179 | 0.0 | 0.0 | 0.00 | 0.00 | 0.00 | 87 | 1008.8 |
| 20260505123600 | 56 | 179 | 0.0 | 0.0 | 0.00 | 0.00 | 0.00 | 89 | 1008.8 |
| 20260505123057 | 55 | 179 | 0.0 | 0.0 | 0.00 | 0.00 | 0.00 | 90 | 1008.8 |
| 20260505122553 | 55 | 179 | 0.0 | 0.0 | 0.00 | 0.00 | 0.00 | 90 | 1009.0 |
| 20260505122051 | 55 | 179 | 0.0 | 0.0 | 0.00 | 0.00 | 0.00 | 90 | 1009.0 |
| 20260505121547 | 54 | 179 | 0.0 | 0.0 | 0.00 | 0.00 | 0.00 | 91 | 1009.2 |
| 20260505121044 | 54 | 179 | 0.0 | 0.0 | 0.00 | 0.00 | 0.00 | 90 | 1009.2 |
| 20260505120540 | 54 | 179 | 0.0 | 0.0 | 0.00 | 0.00 | 0.00 | 90 | 1009.2 |
| 20260505120036 | 54 | 178 | 0.0 | 0.0 | 0.00 | 0.00 | 0.00 | 89 | 1009.2 |
| 20260505115531 | 54 | 179 | 0.0 | 0.0 | 0.00 | 0.00 | 0.00 | 89 | 1009.1 |
| 20260505115028 | 54 | 179 | 0.0 | 0.0 | 0.00 | 0.00 | 0.00 | 89 | 1009.3 |
| 20260505114525 | 54 | 179 | 0.0 | 0.0 | 0.00 | 0.00 | 0.00 | 89 | 1009.2 |
| 20260505114021 | 54 | 179 | 0.0 | 0.0 | 0.00 | 0.00 | 0.00 | 89 | 1009.2 |
| 20260505113518 | 54 | 180 | 0.0 | 0.0 | 0.00 | 0.00 | 0.00 | 90 | 1009.3 |
| 20260505113014 | 53 | 179 | 0.0 | 0.0 | 0.00 | 0.00 | 0.00 | 90 | 1008.8 |
| 20260505112510 | 53 | 179 | 0.0 | 0.0 | 0.00 | 0.00 | 0.00 | 91 | 1009.0 |
| 20260505112008 | 53 | 179 | 0.0 | 0.0 | 0.00 | 0.00 | 0.00 | 92 | 1008.6 |
| 20260505111502 | 53 | 179 | 0.0 | 0.0 | 0.00 | 0.00 | 0.00 | 92 | 1008.7 |
| 20260505110959 | 53 | 179 | 0.0 | 0.0 | 0.00 | 0.00 | 0.00 | 92 | 1008.9 |
| 20260505110455 | 53 | 179 | 0.0 | 0.0 | 0.00 | 0.00 | 0.00 | 92 | 1008.6 |
| 20260505101927 | 51 | 179 | 0.0 | 0.0 | 0.00 | 0.00 | 0.00 | 92 | 1008.5 |
| 20260505101421 | 51 | 178 | 0.0 | 0.0 | 0.00 | 0.00 | 0.00 | 92 | 1008.3 |
| 20260505100917 | 51 | 178 | 0.0 | 0.0 | 0.00 | 0.00 | 0.00 | 93 | 1008.2 |
| 20260505100414 | 51 | 184 | 0.0 | 0.0 | 0.00 | 0.00 | 0.00 | 93 | 1008.5 |
| 20260505095909 | 51 | 184 | 0.0 | 0.0 | 0.00 | 0.00 | 0.00 | 92 | 1008.7 |
| 20260505095407 | 51 | 185 | 0.0 | 0.0 | 0.00 | 0.00 | 0.00 | 91 | 1008.8 |
| 20260505094903 | 51 | 183 | 0.0 | 0.0 | 0.00 | 0.00 | 0.00 | 91 | 1008.7 |
| 20260505094400 | 51 | 183 | 0.0 | 0.0 | 0.00 | 0.00 | 0.00 | 91 | 1008.5 |
| 20260505093855 | 51 | 183 | 0.0 | 0.0 | 0.00 | 0.00 | 0.00 | 91 | 1008.4 |
| 20260505093353 | 51 | 183 | 0.0 | 0.0 | 0.00 | 0.00 | 0.00 | 91 | 1008.5 |
| 20260505092850 | 51 | 184 | 0.0 | 0.0 | 0.00 | 0.00 | 0.00 | 91 | 1008.3 |
| 20260505092348 | 51 | 181 | 0.0 | 0.0 | 0.00 | 0.00 | 0.00 | 91 | 1008.1 |
| 20260505091845 | 51 | 181 | 0.0 | 0.0 | 0.00 | 0.00 | 0.00 | 91 | 1008.1 |
| 20260505091343 | 51 | 182 | 0.0 | 0.0 | 0.00 | 0.00 | 0.00 | 90 | 1007.9 |
| 20260505090841 | 51 | 171 | 0.0 | 0.0 | 0.00 | 0.00 | 0.00 | 90 | 1007.6 |
| 20260505090339 | 51 | 174 | 0.0 | 0.0 | 0.00 | 0.00 | 0.00 | 90 | 1007.7 |
| 20260505085836 | 51 | 176 | 0.0 | 0.0 | 0.00 | 0.00 | 0.00 | 90 | 1008.0 |
| 20260505085334 | 51 | 164 | 0.0 | 0.0 | 0.00 | 0.00 | 0.00 | 89 | 1007.8 |
| 20260505084831 | 51 | 164 | 0.0 | 0.0 | 0.00 | 0.00 | 0.00 | 89 | 1007.7 |
| 20260505084330 | 51 | 166 | 0.0 | 0.0 | 0.00 | 0.00 | 0.00 | 89 | 1008.1 |
| 20260505083826 | 52 | 167 | 0.0 | 0.0 | 0.00 | 0.00 | 0.00 | 89 | 1007.9 |
| 20260505083324 | 52 | 147 | 0.0 | 0.0 | 0.00 | 0.00 | 0.00 | 88 | 1007.9 |
| 20260505082820 | 52 | 173 | 0.0 | 0.0 | 0.00 | 0.00 | 0.00 | 88 | 1007.9 |
| 20260505082317 | 52 | 174 | 0.0 | 0.0 | 0.00 | 0.00 | 0.00 | 88 | 1007.9 |
| 20260505081813 | 52 | 173 | 0.0 | 0.0 | 0.00 | 0.00 | 0.00 | 88 | 1008.0 |
| 20260505081310 | 52 | 173 | 0.0 | 0.0 | 0.00 | 0.00 | 0.00 | 87 | 1007.8 |
| 20260505080807 | 53 | 172 | 0.0 | 0.0 | 0.00 | 0.00 | 0.00 | 87 | 1007.8 |
| 20260505080303 | 53 | 172 | 0.0 | 0.0 | 0.00 | 0.00 | 0.00 | 86 | 1008.0 |
| 20260505075758 | 53 | 173 | 0.0 | 0.0 | 0.00 | 0.00 | 0.00 | 85 | 1007.9 |
| 20260505075256 | 53 | 159 | 0.0 | 0.0 | 0.00 | 0.00 | 0.00 | 85 | 1008.0 |
| 20260505074753 | 54 | 156 | 0.0 | 0.0 | 0.00 | 0.00 | 0.00 | 84 | 1007.7 |
| 20260505074250 | 54 | 155 | 0.0 | 0.0 | 0.00 | 0.00 | 0.00 | 83 | 1007.5 |
| 20260505073747 | 54 | 165 | 0.0 | 0.0 | 0.00 | 0.00 | 0.00 | 83 | 1007.9 |
| 20260505073245 | 54 | 168 | 0.0 | 0.0 | 0.00 | 0.00 | 0.00 | 82 | 1007.7 |
| 20260505072742 | 54 | 150 | 0.0 | 0.0 | 0.00 | 0.00 | 0.00 | 82 | 1007.6 |
| 20260505072238 | 54 | 167 | 0.0 | 0.0 | 0.00 | 0.00 | 0.00 | 83 | 1007.6 |
| 20260505071733 | 54 | 166 | 0.0 | 0.0 | 0.00 | 0.00 | 0.00 | 83 | 1007.7 |
| 20260505071230 | 55 | 159 | 0.0 | 0.0 | 0.00 | 0.00 | 0.00 | 82 | 1007.4 |
| 20260505070728 | 55 | 154 | 0.0 | 0.0 | 0.00 | 0.00 | 0.00 | 82 | 1007.5 |
| 20260505070224 | 56 | 138 | 0.0 | 0.0 | 0.00 | 0.00 | 0.00 | 79 | 1007.4 |
| 20260505065720 | 55 | 132 | 0.0 | 0.0 | 0.00 | 0.00 | 0.00 | 80 | 1007.4 |
| 20260505065217 | 55 | 163 | 0.0 | 0.0 | 0.00 | 0.00 | 0.00 | 82 | 1007.6 |
| 20260505064714 | 55 | 139 | 0.0 | 0.0 | 0.00 | 0.00 | 0.00 | 81 | 1008.1 |
| 20260505064212 | 55 | 154 | 0.0 | 0.0 | 0.00 | 0.00 | 0.00 | 81 | 1007.7 |
| 20260505063709 | 55 | 154 | 0.0 | 0.0 | 0.00 | 0.00 | 0.00 | 81 | 1007.9 |
| 20260505063205 | 55 | 154 | 0.0 | 0.0 | 0.00 | 0.00 | 0.00 | 80 | 1007.8 |
| 20260505062701 | 55 | 154 | 0.0 | 0.0 | 0.00 | 0.00 | 0.00 | 80 | 1007.7 |
| 20260505062200 | 55 | 153 | 0.0 | 0.0 | 0.00 | 0.00 | 0.00 | 79 | 1007.9 |
| 20260505061656 | 56 | 153 | 0.0 | 0.0 | 0.00 | 0.00 | 0.00 | 78 | 1007.8 |
| 20260505061154 | 56 | 153 | 0.0 | 0.0 | 0.00 | 0.00 | 0.00 | 78 | 1007.8 |
| 20260505060651 | 56 | 152 | 0.0 | 0.0 | 0.00 | 0.00 | 0.00 | 77 | 1007.8 |
| 20260505060148 | 57 | 174 | 0.0 | 0.0 | 0.00 | 0.00 | 0.00 | 76 | 1007.9 |
| 20260505055643 | 57 | 174 | 0.0 | 0.0 | 0.00 | 0.00 | 0.00 | 76 | 1008.0 |
| 20260505055140 | 57 | 174 | 0.0 | 0.0 | 0.00 | 0.00 | 0.00 | 75 | 1007.9 |
| 20260505054638 | 57 | 173 | 0.0 | 0.0 | 0.00 | 0.00 | 0.00 | 75 | 1007.8 |
| 20260505054135 | 57 | 162 | 0.0 | 0.0 | 0.00 | 0.00 | 0.00 | 74 | 1008.2 |
| 20260505053633 | 58 | 162 | 0.0 | 0.0 | 0.00 | 0.00 | 0.00 | 75 | 1008.0 |
| 20260505053129 | 58 | 163 | 0.0 | 0.0 | 0.00 | 0.00 | 0.00 | 73 | 1008.1 |
| 20260505052626 | 58 | 155 | 0.0 | 0.0 | 0.00 | 0.00 | 0.00 | 73 | 1008.2 |
| 20260505052124 | 58 | 168 | 0.0 | 0.0 | 0.00 | 0.00 | 0.00 | 72 | 1008.1 |
| 20260505051621 | 59 | 169 | 0.0 | 0.0 | 0.00 | 0.00 | 0.00 | 71 | 1007.9 |
| 20260505051119 | 59 | 157 | 0.0 | 0.0 | 0.00 | 0.00 | 0.00 | 70 | 1008.0 |
| 20260505050616 | 60 | 165 | 0.0 | 0.0 | 0.00 | 0.00 | 0.00 | 69 | 1007.9 |
| 20260505050114 | 60 | 171 | 0.0 | 0.0 | 0.00 | 0.00 | 0.00 | 69 | 1008.2 |
| 20260505041544 | 64 | 197 | 0.0 | 0.0 | 0.00 | 0.00 | 0.00 | 59 | 1008.1 |
| 20260505041041 | 63 | 165 | 0.0 | 0.0 | 0.00 | 0.00 | 0.00 | 59 | 1007.8 |
| 20260505040538 | 63 | 163 | 0.0 | 0.0 | 0.00 | 0.00 | 0.00 | 58 | 1007.8 |
| 20260505040035 | 64 | 160 | 0.0 | 0.0 | 0.00 | 0.00 | 0.00 | 57 | 1007.9 |
| 20260505035531 | 65 | 161 | 0.0 | 0.0 | 0.00 | 0.00 | 0.00 | 56 | 1007.8 |
| 20260505035028 | 64 | 165 | 0.0 | 0.0 | 0.00 | 0.00 | 0.00 | 52 | 1007.8 |
| 20260505034525 | 65 | 164 | 0.0 | 0.0 | 0.00 | 0.00 | 0.00 | 54 | 1007.8 |